Flag for U.S.A. Weather past 2 weeks in Norwalk, California, U.S.A.

Now
61 °F

Fog.


Feels Like: 61 °F
Forecast: 57 / 81 °F
Wind: 5 mph from Southwest

Location: Fullerton Municipal Airport

Current Time: Mar 29, 2015 at 6:23:14 AM

Latest Report: Mar 29, 2015 at 4:53 AM


Visibility: 4 mi

Pressure: 30.02 "Hg

Humidity: 90%

Dew point: 58 °F

Location of NorwalkLocation

Historic Weather in Norwalk — Graph

°F

Norwalk temperature yesterday

Maximum temperature yesterday: 82 °F (at 2:53 PM)
Minimum temperature yesterday: 60 °F (at 6:53 AM)
Average temperature yesterday: 69 °F

Past Weeks' High & Low Weather Summary

 TemperatureHumidityPressure
High96 °F (Mar 14, 2:53 PM)90% (Mar 29, 4:53 AM)30.18 "Hg (Mar 29, 4:53 AM)
Low56 °F (Mar 24, 5:53 AM)7% (Mar 26, 1:53 PM)29.85 "Hg (Mar 16, 5:53 PM)
Average70 °F52%30.02 "Hg
* Reported Mar 14 4:53 AM — Mar 29 4:53 AM, Norwalk, Weather by CustomWeather, © 2015

Note: Actual official high and low records may vary slightly from our data, if they occured in-between our weather recording intervals... More about our weather records

Advertising

Norwalk weather history for previous 24 hours

 ConditionsComfort  
Time TempWeatherWind HumidityBarometerVisibility
4:53 AM
Sun, Mar 29
61 °FFog.5 mph90%30.02 "Hg4 mi
3:53 AM62 °FFog.No wind86%30.01 "Hg5 mi
2:53 AM61 °FPassing clouds.No wind83%30.01 "Hg8 mi
1:53 AM63 °FClear.3 mph84%30.03 "Hg7 mi
12:53 AM63 °FClear.No wind81%30.03 "Hg8 mi
11:53 PM
Sat, Mar 28
64 °FClear.No wind78%30.03 "Hg10 mi
10:53 PM65 °FClear.No wind78%30.03 "Hg10 mi
9:53 PM66 °FClear.No wind73%30.02 "Hg10 mi
8:53 PM67 °FClear.3 mph71%30.02 "Hg10 mi
7:53 PM69 °FSunny.3 mph57%30.00 "Hg10 mi
6:53 PM72 °FSunny.6 mph48%29.98 "Hg10 mi
5:53 PM78 °FSunny.7 mph36%29.98 "Hg10 mi
4:53 PM79 °FSunny.6 mph45%29.97 "Hg10 mi
3:53 PM81 °FSunny.7 mph37%29.98 "Hg10 mi
2:53 PM82 °FSunny.6 mph33%29.99 "Hg10 mi
1:53 PM79 °FSunny.6 mph38%30.02 "Hg10 mi
12:53 PM77 °FSunny.6 mph44%30.05 "Hg10 mi
11:53 AM78 °FSunny.7 mph43%30.06 "Hg10 mi
10:53 AM74 °FSunny.6 mph50%30.06 "Hg10 mi
9:53 AM69 °FSunny.No wind66%30.06 "Hg8 mi
8:53 AM65 °FSunny.No wind68%30.06 "Hg10 mi
7:53 AM62 °FSunny.3 mph70%30.06 "Hg10 mi
6:53 AM60 °FClear.3 mph75%30.05 "Hg10 mi
Weather by CustomWeather, © 2015

See weather overviewHow to use our weather pages